カタログに戻る

CZ-2C R/B

運用中SSO
NORAD 61873·ROCKET BODY·🇨🇳 China

打ち上げ Nov 9, 2024 から Jiuquan Satellite Launch Center

Loading…

次のパス (今後24時間)

TLE

最新Source: Space-Track

元期: Sep 14, 2026, 14:39 UTC

1 61873U 24203E   26257.61069951  .00006324  00000-0  18483-3 0  9997
2 61873  97.2933 320.7159 0071585 279.8956  79.4211 15.33085973102831

AllMySatでCZ-2C R/Bをリアルタイム追跡

Download on the App Store